Home   Weather   Phenix City   Past weeks
Flag for USA

Past Weather in Phenix City, Alabama, USA — Yesterday and Last 2 Weeks

Now
73 °F

Sunny.


Feels Like: 72 °F
Forecast: 93 / 69 °F
Wind: No wind

Location: Columbus Metropolitan Airport

Current Time: Jun 27, 2019 at 8:38:18 am

Latest Report: Jun 27, 2019 at 7:51 am


Visibility: 10 mi

Pressure: 30.16 "Hg

Humidity: 84%

Dew Point: 68 °F

Location of Phenix CityLocation

Past Weather in Phenix City — Graph

°F

Phenix City Temperature Yesterday

Maximum temperature yesterday: 89 °F (at 3:51 pm)
Minimum temperature yesterday: 74 °F (at 8:51 pm)
Average temperature yesterday: 82 °F

High & Low Weather Summary for the Past Weeks

 TemperatureHumidityPressure
High94 °F (Jun 21, 4:51 pm)94% (Jun 18, 5:51 pm)30.18 "Hg (Jun 18, 5:51 pm)
Low61 °F (Jun 14, 6:51 am)31% (Jun 13, 5:51 pm)29.80 "Hg (Jun 19, 6:51 pm)
Average80 °F70%30.00 "Hg
* Reported Jun 12 6:15 am — Jun 27 6:51 am, Phenix City. Weather by CustomWeather, © 2019

Note: Actual official high and low records may vary slightly from our data, if they occured in-between our weather recording intervals... More about our weather records

Advertising

Phenix City Weather History for the Previous 24 Hours

Scroll right to see more
 ConditionsComfort  
Time TempWeatherWind HumidityBarometerVisibility
6:51 am
Thu, Jun 27
72 °FSunny.5 mph84%30.14 "Hg10 mi
5:51 am72 °FClear.No wind87%30.12 "Hg10 mi
4:51 am73 °FClear.No wind81%30.13 "Hg10 mi
3:51 am73 °FClear.No wind81%30.14 "Hg10 mi
2:51 am72 °FClear.3 mph87%30.14 "Hg10 mi
1:51 am73 °FClear.No wind84%30.15 "Hg10 mi
12:51 am74 °FClear.5 mph82%30.16 "Hg10 mi
11:51 pm
Wed, Jun 26
75 °FClear.3 mph79%30.16 "Hg10 mi
10:51 pm75 °FClear.3 mph79%30.14 "Hg10 mi
9:51 pm75 °FClear.5 mph76%30.14 "Hg10 mi
9:05 pm74 °FPartly cloudy.No wind79%30.15 "Hg10 mi
8:51 pm74 °FThundershowers. Mostly cloudy.7 mph79%30.14 "Hg10 mi
7:51 pm81 °FOvercast.9 mph60%30.13 "Hg10 mi
7:09 pm82 °FSunny.15 mph60%30.12 "Hg10 mi
6:51 pm89 °FSunny.12 mph48%30.09 "Hg10 mi
5:51 pm88 °FPassing clouds.7 mph55%30.10 "Hg10 mi
4:51 pm89 °FSunny.5 mph52%30.11 "Hg10 mi
3:51 pm89 °FSunny.6 mph53%30.11 "Hg10 mi
2:51 pm88 °FSunny.No wind55%30.13 "Hg10 mi
1:51 pm88 °FSunny.5 mph57%30.14 "Hg10 mi
12:51 pm87 °FSunny.5 mph55%30.16 "Hg10 mi
11:51 am87 °FSunny.8 mph55%30.17 "Hg10 mi
10:51 am85 °FSunny.5 mph61%30.17 "Hg10 mi
9:51 am82 °FSunny.3 mph70%30.17 "Hg10 mi
8:51 am80 °FSunny.5 mph74%30.17 "Hg10 mi
Weather by CustomWeather, © 2019

See weather overview